Location: Unspecified
(49.9820°N, 20.4363°E)
Time: 13:56:01
(UTC+02:00)

ISS - Pass Details

Date: 21 May 2018
Orbit: 402 x 407 km, 51.6° (Epoch: 20 May)

Event Time Altitude Azimuth Distance (km) Brightness Sun altitude
Rises 02:21:34 0° 286° (WNW) 2,320 -0.1 -16.0°
Reaches altitude 10° 02:23:39 10° 286° (WNW) 1,459 -1.1 -15.9°
Maximum altitude 02:26:55 86° 198° (SSW) 409 -4.0 -15.6°
Drops below altitude 10° 02:30:11 10° 109° (ESE) 1,455 -0.9 -15.4°
Sets 02:32:16 0° 109° (ESE) 2,312 0.1 -15.2°
